Oxford, CT

11:19 PM EST on February 23, 2018 (GMT -0500)
Waterbury-Oxford

Weather History for KOXC - December, 2012

Change the Weather History Date:

Monday, December 17, 2012

  Actual Average Record
Temperature  
Mean Temperature 34 °F -  
Max Temperature 37 °F 37 °F 60 °F (2000)
Min Temperature 33 °F 24 °F 6 °F (2013)
Degree Days  
Heating Degree Days 31    
Moisture  
Dew Point 30 °F    
Average Humidity 83    
Maximum Humidity 87    
Minimum Humidity 81    
Precipitation  
Precipitation 0.05 in - - ()
Sea Level Pressure  
Sea Level Pressure 29.83 in    
Wind  
Wind Speed 11 mph (ENE)    
Max Wind Speed 14 mph    
Max Gust Speed 24 mph    
Visibility 2 miles    
Events Rain    
Averages and records for this station are not official NWS values.
T = Trace of Precipitation, MM = Missing Value Source: NWS Daily Summary

Daily Weather History Graph

Daily Weather History Graph

Search for Another Location

Airport or City:

Trip Planner

Search our weather history database for the weather conditions in past years. The results will help you decide how hot, cold, wet, or windy it might be!

Date:

Astronomy

Dec. 17, 2012 Rise Set
Actual Time 7:13 AM EST 4:24 PM EST
Civil Twilight 6:42 AM EST 4:55 PM EST
Nautical Twilight 6:07 AM EST 5:30 PM EST
Astronomical Twilight 5:33 AM EST 6:04 PM EST
Moon 10:17 AM EST (12/17) 9:46 PM EST (12/17)
Length of Visible Light 10h 13m
Length of Day
9h 10m
Waxing Crescent, 24% of the Moon is Illuminated
Dec 17
Waxing Crescent
Dec 20
First Quarter
Dec 28
Full
Jan 4
Last Quarter
Jan 11
New

Hourly Weather History & Observations

Time (EST) Temp. Windchill Dew Point Humidity Pressure Visibility Wind Dir Wind Speed Gust Speed Precip Events Conditions
12:15 AM 33.8 °F 25.3 °F 28.4 °F 81% 29.95 in 3.0 mi ENE 11.5 mph 18.4 mph N/A   Overcast
12:35 AM 33.8 °F 24.3 °F 28.4 °F 81% 29.95 in 2.5 mi ENE 13.8 mph 19.6 mph 0.01 in   Overcast
5:45 AM 33.8 °F 25.3 °F 28.4 °F 81% 29.90 in 10.0 mi ENE 11.5 mph 17.3 mph N/A   Overcast
6:45 AM 33.8 °F 25.3 °F 28.4 °F 81% 29.91 in 7.0 mi East 11.5 mph 18.4 mph N/A Rain Light Rain
7:45 AM 33.8 °F 27.7 °F 28.4 °F 81% 29.92 in 7.0 mi ENE 6.9 mph 17.3 mph N/A   Overcast
8:05 AM 33.8 °F 25.3 °F 28.4 °F 81% 29.91 in 2.0 mi East 11.5 mph 18.4 mph N/A   Overcast
8:50 AM 33.8 °F 25.3 °F 28.4 °F 81% 29.91 in 1.5 mi East 11.5 mph 18.4 mph N/A   Overcast
9:45 AM 33.8 °F 25.3 °F 28.4 °F 81% 29.91 in 1.5 mi East 11.5 mph 18.4 mph N/A   Overcast
10:45 AM 35.6 °F 27.5 °F 30.2 °F 81% 29.92 in 1.0 mi ENE 11.5 mph 16.1 mph N/A   Overcast
11:45 AM 35.6 °F 28.6 °F 30.2 °F 81% 29.89 in 1.0 mi ENE 9.2 mph - N/A   Light Drizzle
12:45 PM 35.6 °F 28.6 °F 30.2 °F 81% 29.89 in 1.0 mi East 9.2 mph - N/A   Overcast
1:45 PM 35.6 °F 28.6 °F 30.2 °F 81% 29.87 in 1.0 mi ENE 9.2 mph - N/A   Overcast
2:45 PM 35.6 °F 31.7 °F 30.2 °F 81% 29.87 in 1.0 mi NE 4.6 mph - N/A   Overcast
3:45 PM 35.6 °F 27.1 °F 30.2 °F 81% 29.83 in 1.0 mi NE 12.7 mph 18.4 mph N/A   Light Drizzle
4:45 PM 35.6 °F 28.0 °F 30.2 °F 81% 29.81 in 2.0 mi East 10.4 mph 18.4 mph N/A   Light Drizzle
7:45 PM 35.6 °F 28.0 °F 30.2 °F 81% 29.81 in 2.0 mi ENE 10.4 mph 16.1 mph N/A   Light Drizzle
8:55 PM 35.6 °F 29.2 °F 30.2 °F 81% 29.79 in 1.5 mi ENE 8.1 mph 16.1 mph N/A   Overcast
9:15 PM 35.6 °F 27.5 °F 30.2 °F 81% 29.78 in 1.5 mi ENE 11.5 mph 17.3 mph 0.01 in   Overcast
9:35 PM 35.6 °F 28.0 °F 32.0 °F 87% 29.77 in 1.2 mi ENE 10.4 mph 17.3 mph 0.01 in   Overcast
9:55 PM 35.6 °F 28.0 °F 32.0 °F 87% 29.77 in 1.5 mi ENE 10.4 mph 20.7 mph 0.01 in   Overcast
10:15 PM 35.6 °F 27.5 °F 32.0 °F 87% 29.76 in 1.8 mi ENE 11.5 mph 18.4 mph N/A   Overcast
10:35 PM 35.6 °F 28.0 °F 32.0 °F 87% 29.73 in 1.8 mi ENE 10.4 mph 18.4 mph 0.01 in   Overcast
10:55 PM 35.6 °F 28.0 °F 32.0 °F 87% 29.72 in 1.8 mi ENE 10.4 mph 16.1 mph 0.01 in   Overcast
11:15 PM 35.6 °F 28.0 °F 32.0 °F 87% 29.71 in 1.8 mi ENE 10.4 mph 24.2 mph 0.01 in   Overcast
11:35 PM 35.6 °F 28.6 °F 32.0 °F 87% 29.71 in 1.8 mi ENE 9.2 mph 18.4 mph 0.03 in   Overcast
11:56 PM 37.4 °F 29.3 °F 32.0 °F 81% 29.69 in 3.0 mi ENE 12.7 mph 18.4 mph N/A   Overcast